This is the latest recevied weather packets stored in our database for station/object WX4LTG. If no packets are shown the sender has not sent any weather packets the latest 10 day(s).
| Time | Temp. | Humidity | Pressure | Rain* | Wind** | Luminosity | Snow |
|---|---|---|---|---|---|---|---|
| 1777118829 | 17.78° C | 38% | 1008.4 hPa | 0 mm | - | 0 W/m² | - |
| 1777118527 | 17.78° C | 37% | 1008 hPa | 0 mm | - | 0 W/m² | - |
| 1777118227 | 17.78° C | 37% | 1008.3 hPa | 0 mm | - | 0 W/m² | - |
| 1777117924 | 17.22° C | 38% | 1008.5 hPa | 0 mm | - | 0 W/m² | - |
| 1777117620 | 17.78° C | 39% | 1008.1 hPa | 0 mm | - | 0 W/m² | - |
| 1777117318 | 17.78° C | 38% | 1008.4 hPa | 0 mm | - | 0 W/m² | - |
| 1777117013 | 17.78° C | 37% | 1008.5 hPa | 0 mm | - | 0 W/m² | - |
| 1777116709 | 17.78° C | 37% | 1008.5 hPa | 0 mm | - | 0 W/m² | - |
| 1777116405 | 18.33° C | 36% | 1008.5 hPa | 0 mm | - | 0 W/m² | - |
| 1777116101 | 17.78° C | 36% | 1008.5 hPa | 0 mm | - | 0 W/m² | - |
| 1777115801 | 18.33° C | 37% | 1008.3 hPa | 0 mm | - | 0 W/m² | - |
| 1777115497 | 18.33° C | 36% | 1008.4 hPa | 0 mm | - | 0 W/m² | - |
| 1777115193 | 18.33° C | 36% | 1008.3 hPa | 0 mm | - | 0 W/m² | - |
| 1777114891 | 18.33° C | 36% | 1008.4 hPa | 0 mm | - | 0 W/m² | - |
| 1777114587 | 18.33° C | 36% | 1007.9 hPa | 0 mm | - | 0 W/m² | - |
| 1777114286 | 18.33° C | 36% | 1008.3 hPa | 0 mm | - | 0 W/m² | - |
| 1777113983 | 18.89° C | 37% | 1008 hPa | 0 mm | - | 0 W/m² | - |
| 1777113679 | 18.89° C | 37% | 1008.1 hPa | 0 mm | - | 0 W/m² | - |
| 1777113378 | 19.44° C | 35% | 1008.3 hPa | 0 mm | - | 0 W/m² | - |
| 1777113077 | 19.44° C | 34% | 1008.1 hPa | 0 mm | - | 0 W/m² | - |
| 1777112774 | 20° C | 33% | 1007.9 hPa | 0 mm | - | 0 W/m² | - |
| 1777112471 | 20° C | 32% | 1007.7 hPa | 0 mm | - | 0 W/m² | - |
| 1777112167 | 20° C | 32% | 1007.9 hPa | 0 mm | - | 0 W/m² | - |
| 1777111863 | 20° C | 33% | 1007.7 hPa | 0 mm | - | 0 W/m² | - |
| 1777111561 | 20° C | 32% | 1007.8 hPa | 0 mm | - | 0 W/m² | - |
* Rain latest hour (hover to see other rain measurements)
** Current wind speed in m/s (hover to see current wind gust speed)